This is the latest recevied weather packets stored in our database for station/object KA1JKB. If no packets are shown the sender has not sent any weather packets the latest 10 day(s).
| Time | Temp. | Humidity | Pressure | Rain* | Wind** | Luminosity | Snow |
|---|---|---|---|---|---|---|---|
| 1787669323 | 21.67° C | 75% | 1018.7 hPa | 0 mm | - | 482 W/m² | - |
| 1787669019 | 21.11° C | 77% | 1018.7 hPa | 0 mm | - | 158 W/m² | - |
| 1787668715 | 21.67° C | 79% | 1018.6 hPa | 0 mm | - | 646 W/m² | - |
| 1787668411 | 21.67° C | 80% | 1018.8 hPa | 0 mm | - | 637 W/m² | - |
| 1787668106 | 21.67° C | 79% | 1018.7 hPa | 0 mm | - | 605 W/m² | - |
| 1787667801 | 20.56° C | 80% | 1018.5 hPa | 0 mm | - | 113 W/m² | - |
| 1787667496 | 21.67° C | 79% | 1018.7 hPa | 0 mm | - | 471 W/m² | - |
| 1787667192 | 21.11° C | 80% | 1018.4 hPa | 0 mm | - | 528 W/m² | - |
| 1787666886 | 21.67° C | 81% | 1018.8 hPa | 0 mm | - | 96 W/m² | - |
| 1787666583 | 20.56° C | 83% | 1018.7 hPa | 0 mm | - | 95 W/m² | - |
| 1787666283 | 20.56° C | 84% | 1018.6 hPa | 0 mm | - | 523 W/m² | - |
| 1787665978 | 20° C | 84% | 1018.7 hPa | 0 mm | - | 100 W/m² | - |
| 1787665673 | 20° C | 85% | 1018.5 hPa | 0 mm | - | 415 W/m² | - |
| 1787665373 | 20° C | 85% | 1018.4 hPa | 0 mm | - | 507 W/m² | - |
| 1787665069 | 19.44° C | 87% | 1018.5 hPa | 0 mm | - | 449 W/m² | - |
| 1787664766 | 19.44° C | 86% | 1018.3 hPa | 0 mm | - | 426 W/m² | - |
| 1787664465 | 20° C | 86% | 1018.3 hPa | 0 mm | - | 421 W/m² | - |
| 1787664161 | 20° C | 84% | 1018.3 hPa | 0 mm | - | 407 W/m² | - |
| 1787663860 | 19.44° C | 86% | 1018.3 hPa | 0 mm | - | 400 W/m² | - |
| 1787663556 | 18.33° C | 92% | 1018.3 hPa | 0 mm | - | 371 W/m² | - |
| 1787663251 | 17.78° C | 96% | 1017.9 hPa | 0 mm | - | 351 W/m² | - |
| 1787662947 | 16.67° C | 99% | 1018.1 hPa | 0 mm | - | 308 W/m² | - |
| 1787662647 | 16.11° C | 99% | 1018.1 hPa | 0 mm | - | 321 W/m² | - |
| 1787662342 | 16.11° C | 99% | 1018.2 hPa | 0 mm | - | 207 W/m² | - |
| 1787662038 | 15.56° C | 99% | 1018.1 hPa | 0 mm | - | 201 W/m² | - |
* Rain latest hour (hover to see other rain measurements)
** Current wind speed in m/s (hover to see current wind gust speed)